STARLINK-1740, 46566

Orbit data source: Space-Track

STARLINK-1740, 46566 is a payload satellite owned by SpaceX/Seattle (US) in LEO that was launched on Tue, 06 Oct 2020 UTC via an FALCON 9 launch vehicle from the Air Force Eastern Test Range (AFETR). Payloads include a variety of satellites, spacecraft, and rockets equipped with specific instruments for various scientific and technological missions. These include communications satellites like Starlink; space stations such as the ISS; scientific satellites like the Hubble; Earth observation satellites from companies like Planet Labs, Umbra, and HawkEye 360; GPS; miniature CubeSats for education and research; and military/defense satellites.

Loading next visibility...
STARLINK-1740 details
Identifier
46566, 2020-070AL
Orbit
LEO
Last TLE update18 hours ago
Origin
Flag of USSpaceX/Seattle (US)
ManufacturerSpaceX/Seattle
MissionOperational Commercial Communications
Bus & MotorSTARLINK, Unknown motor
Mass260 kg wet, ~248 kg dry
Launch date (UTC)
2020-10-06 (4 years ago)
Launch vehicle
FALCON 9
Launch site
Air Force Eastern Test Range (AFETR)
Object type
Payload
Rocket body
Debris
Shape & HBRBox + 1 Pan, 8.86 m
Radar Cross Section13.562 m², Large (>1 m²)

Expand to show TLE details & history

TLE from 18 hours ago
0 STARLINK-1740
1 46566U 20070AL  24336.58787867  .00011896  00000-0  81671-3 0  9991
2 46566  53.0560  75.5573 0003500  81.8331 278.3055 15.06374557229660
Epoch: 2024-12-01T14:06Z
Definitive object data (Epoch: 2024-12-01T14:06:32.717Z)
Latitude0.00001°
Longitude152.99704°
Altitude547.82 km
Speed7.589 km/s
True Right ascension05h 02m 13s
True Declination0° 00' 00"
Sunlit
Object was in full shadow at TLE epoch
Visualization TLE readout
Latitude19.06943°
Longitude164.68345°
Altitude546.402 km
Speed7.592 km/s
Apparent Right ascension06h 43m 45s
Apparent Declination-46° 45' 07"
Sunlit
Object is in full shadow
Visualization observer readout
Local Sidereal Time05:29:58
Azimuth167.471° S
Elevation1.783°
Doppler factor1
Orbital elements
Apogee altitude549.984 km
Perigee altitude545.136 km
Semi-major axis6,925.697 km
Eccentricity0.00035
Inclination53.056°
RAAN75.5573°
Arg. of periapsis81.8331°
True anomaly278.26581°
Mean anomaly278.3055°
Eccentric anomaly278.28566°
Mean motion3.76572 °/min
BSTAR0.00081671
Orbital period95.6 mins
Loading maneuver chart data...
Loading historical data...
Loading historical data...
Loading historical data...
Loading historical data...
Loading historical data...
Loading historical data...
Loading historical data...

STARLINK-1740 Visibility forecast

Observer location: undefined°, undefined

Span
Click to sort rows by Start time (UTC) header in descending order
Start Az.
Max El. time (UTC)
Max El. Az.
Max El.
End time (UTC)
End Az.
7 mins2024-12-02 09:22:51.087Z222.526° SW2024-12-02 09:26:51.087Z123.722° SE43.906°2024-12-02 09:29:51.087Z54.651° ENE
5 mins2024-12-02 11:04:51.087Z299.947° NW2024-12-02 11:06:51.087Z341.209° N21.439°2024-12-02 11:09:51.087Z29.66° NE
4 mins2024-12-02 14:26:51.087Z353.704° N2024-12-02 14:27:51.087Z12.094° NNE17.913°2024-12-02 14:30:51.087Z62.633° ENE
6 mins2024-12-02 16:05:51.087Z316.527° NNW2024-12-02 16:07:51.087Z347.498° N42.097°2024-12-02 16:11:51.087Z123.158° SE
|